Tracking 19490 objects as of 23-Jan-2019
HD Live streaming from Space Station
objects crossing your sky now

COSMOS 2233

Track COSMOS 2233 now!
10-day predictions
COSMOS 2233 is classified as:


NORAD ID: 22487
Int'l Code: 1993-008A
Perigee: 957.0 km
Apogee: 1,015.1 km
Inclination: 82.9 °
Period: 104.7 minutes
Semi major axis: 7357 km
RCS: 2.1545 m2 (large)
Launch date: February 9, 1993
Source: Commonwealth of Independent States (former USSR) (CIS)
Launch site: PLESETSK MISSILE AND SPACE COMPLEX (PKMTR)
aabbcc
Your satellite tracking list
Your tracking list is empty




NASA's NSSDC Master Catalog

Two Line Element Set (TLE):
1 22487U 93008A   19022.65015584  .00000012  00000-0 -33667-5 0  9995
2 22487  82.9431  26.9573 0039470 105.7487  31.1930 13.75781791298699
Source of the keplerian elements: AFSPC